Voltar ao catálogo

BREEZE-M DEB

LostHEO
NORAD 38639·DEBRIS·🇷🇺 Russia

Lançado Mar 14, 2008 de Baikonur Cosmodrome

Loading…

Próximas Passagens (próximas 24 horas)

TLE

ObsoletoSource: Space-Track

Época: May 28, 2013, 09:05 UTC

1 38639U 08011CN  13148.37901888  .00012897  00000-0  70873-1 0  9993
2 38639 049.2412 231.5165 6569167 213.6656 078.1615 03.03367833 21912

Acompanhe BREEZE-M DEB em tempo real com AllMySat

Download on the App Store